ARIANE 3 DEB, 26806

Orbit data source: Space-Track

ARIANE 3 DEB, 26806 is space debris in HEO originally from a launch on Thu, 08 Sep 1988 UTC launched from the French Guiana (FRGUI). Debris objects in space refer to the collection of defunct objects orbiting the Earth. Examples of debris include non-operational satellites, rocket bodies, and fragments generated from explosions, collisions, or faulty payload assembly.

Loading next visibility...
Identifier
26806, 1988-081G
Orbit
HEO
Country
Flag of FRFR
Related business
Manufacturer
Unknown
Mission
Spacecraft
Bus & Motor
Unknown
Mass
Unknown
Launch date (UTC)
1988-09-08 (37 years ago)
Launch vehicle
Unknown
Launch site
French Guiana (FRGUI)
Object type
Payload
Rocket body
Debris
Shape & HBR
Unknown shape, 1.1 m
Radar Cross Section
Large (>1 m²)

Expand to show TLE details & history
Last TLE update: 4 months ago

TLE from 4 months ago
0 ARIANE 3 DEB
1 26806U 88081G   25185.43249649 -.00000114  00000-0  00000-0 0  9996
2 26806   5.8091  95.3862 7042266 149.8965 322.2564  2.17435847198293
Epoch: 2025-07-04T10:22Z
TLE epoch observation values (Epoch: 2025-07-04T10:22:47.696Z)
Latitude
2.48188°
Longitude
41.87211°
Altitude
14,876.93 km
Speed
4.655 km/s
True Right ascension
08h 01m 01s
True Declination
2° 28' 37"
Sunlit
Object was in daylight at epoch
Visualization orbit readout
Latitude
Unknown
Longitude
Unknown
Altitude
Unknown
Speed
Unknown
Apparent Right ascension
Unknown
Apparent Declination
Unknown
Sunlit
N/A
Visualization observer readout
Local Sidereal Time
05:00:10
Azimuth
Unknown
Elevation
Unknown
Doppler factor
Unknown
Orbital elements
Apogee altitude
36,521.976 km
Perigee altitude
1,067.3 km
Semi-major axis
25,172.775 km
Eccentricity
0.70423
Inclination
5.8091°
RAAN
95.3862°
Arg. of periapsis
149.8965°
True anomaly
235.2264°
Mean anomaly
322.2564°
Eccentric anomaly
282.93033°
Mean motion
0.54343 °/min
Orbital period
662.45 mins
BSTAR
0
Loading maneuver chart data...
Computing Atmospheric mass density...
Loading historical data...
Loading historical data...
Loading historical data...
Loading historical data...
Loading historical data...
Loading historical data...
Loading historical data...

Documentation

Showing up to 5 results
|